Location: Laterina
(43.5167°N, 11.7167°E)
Time: 04:24:08
(UTC+00:00)

Milstar 3 Cent rocket - Pass Details

Date: 24 September 2020
Orbit: 707 x 5145 km, 28.3° (Epoch: 25 October)

Event Time Altitude Azimuth Distance (km) Brightness Sun altitude
Rises 19:24:55 0° 245° (WSW) 4,391 6.5 -25.2°
Reaches altitude 10° 19:29:23 10° 227° (SW) 2,843 5.2 -26.0°
Enters shadow 19:32:40 17° 197° (SSW) 2,052 4.1 -26.5°
